Location: Marcé
(47.5801°N, 0.3280°W)
Time: 14:42:39
(UTC+01:00)

Explorer 7 - Visible Passes

Search period start: 09 December 2021 00:00
Search period end: 19 December 2021 00:00
Orbit: 483 x 675 km, 50.3° (Epoch: 08 December)

Date Brightness Start Highest point End Pass type
(mag) Time Alt. Az. Time Alt. Az. Time Alt. Az.
09 Dec 9.7 05:00:23 16° E 05:00:23 16° E 05:01:17 10° ENE visible
09 Dec 6.8 06:36:40 50° WNW 06:37:38 70° NNW 06:41:45 10° ENE visible
10 Dec 9.7 05:04:25 16° ENE 05:04:25 16° ENE 05:05:22 10° ENE visible
10 Dec 6.9 06:40:40 45° WNW 06:41:43 62° N 06:45:48 10° ENE visible
11 Dec 9.6 05:08:21 17° ENE 05:08:21 17° ENE 05:09:24 10° ENE visible
11 Dec 7.0 06:44:37 41° WNW 06:45:49 59° N 06:49:52 10° ENE visible
12 Dec 9.5 05:12:16 18° ENE 05:12:16 18° ENE 05:13:25 10° ENE visible
12 Dec 7.0 06:48:32 38° WNW 06:49:54 59° N 06:53:58 10° E visible
13 Dec 9.4 05:16:10 19° ENE 05:16:10 19° ENE 05:17:27 10° ENE visible
13 Dec 7.0 06:52:25 36° WNW 06:54:01 64° N 06:58:04 10° E visible
14 Dec 9.3 05:20:02 21° ENE 05:20:02 21° ENE 05:21:30 10° ENE visible
14 Dec 6.9 06:56:18 34° WNW 06:58:05 73° NNE 07:02:09 10° E visible
15 Dec 9.2 05:23:55 23° ENE 05:23:55 23° ENE 05:25:34 10° E visible
15 Dec 6.8 07:00:10 32° WNW 07:02:06 88° NNE 07:06:12 10° ESE visible
16 Dec 9.0 05:27:48 25° ENE 05:27:48 25° ENE 05:29:40 10° E visible
16 Dec 6.9 07:04:04 30° WNW 07:06:06 73° SSW 07:10:10 10° ESE visible
17 Dec 8.8 05:31:43 28° E 05:31:43 28° E 05:33:45 10° E visible
17 Dec 7.2 07:07:58 27° W 07:10:03 53° SSW 07:14:01 10° SE visible
18 Dec 8.7 05:35:39 30° E 05:35:39 30° E 05:37:49 10° ESE visible
18 Dec 7.7 07:11:55 23° W 07:13:55 37° SW 07:17:42 10° SSE visible
